RH
20 18 15 13 11 12 12 11 11 11 12 11 11 11 11 11 11 11 11 11 12 11 12 12 12 11 10 10 11 14 13 17 19 17 18 19 19 17 16 15 14 13 12 11 11 14 17 15 15 14 14 17 19 24 22 22 35 41 47 50 54 69 67 51 39 35 40 43 44 44 50 55 51 53 57 64 75 83 90 90 89 89 90 92 95 95 91 91
16 14 12 11 10 11 11 11 10 10 11 11 12 11 12 12 11 11 11 11 11 12 12 11 12 11 10 11 11 14 14 18 20 18 18 19 18 17 16 15 15 14 13 12 15 21 22 21 18 16 17 21 23 22 23 26 28 42 56 51 59 76 59 38 34 32 35 35 39 43 46 49 48 56 57 63 79 84 85 93 96 96 94 92 95 97 94 90
15 12 11 10 10 11 11 11 10 10 12 13 14 14 14 13 13 13 12 12 10 12 12 12 12 10 11 11 11 14 14 18 21 18 17 18 17 17 16 16 15 14 14 13 17 21 22 23 19 17 17 19 27 23 27 28 25 45 54 47 70 77 42 29 32 31 33 32 34 37 43 45 48 56 54 64 84 85 82 90 97 96 97 98 94 95 93 88
12 11 11 10 10 10 10 10 10 11 14 15 16 16 16 15 16 15 13 13 11 11 12 12 11 10 11 10 12 14 15 22 21 17 17 18 16 17 16 16 16 15 16 15 17 19 19 22 17 16 14 20 34 28 29 32 27 40 47 53 68 53 31 30 31 31 35 34 34 37 42 43 44 47 54 69 79 82 85 83 86 88 94 100 94 92 92 87
10 10 11 10 10 10 9 10 10 11 14 16 17 17 17 16 16 15 13 12 12 12 13 13 10 11 11 10 13 12 17 29 24 16 17 18 16 16 15 15 16 15 15 15 15 16 17 18 16 18 16 19 28 23 29 35 30 34 41 49 48 34 29 30 31 35 36 36 38 40 38 39 43 40 54 73 68 73 83 76 79 85 89 98 94 91 91 87
11 11 11 11 10 10 9 9 11 14 17 18 18 16 16 14 14 15 12 10 12 11 13 12 9 10 11 11 11 13 24 32 22 15 18 18 16 16 15 14 15 15 15 14 14 14 15 16 15 19 20 20 22 19 24 27 25 31 36 36 35 32 30 29 33 36 39 41 39 40 38 40 45 41 52 65 62 70 74 71 82 88 88 93 93 90 90 89
12 12 12 11 10 10 9 9 11 15 17 17 15 13 13 12 13 13 10 11 11 11 12 10 9 10 11 9 11 21 31 26 16 16 18 16 17 18 16 14 14 15 14 13 14 14 16 18 16 18 21 23 23 21 23 25 28 35 35 31 32 34 31 31 35 37 43 41 37 39 37 39 44 44 49 50 55 67 67 76 90 88 89 92 94 92 89 89
12 13 12 12 11 10 10 9 10 14 16 14 13 12 12 11 11 10 10 11 10 11 11 9 10 9 9 11 22 34 28 17 16 17 17 17 18 18 16 15 15 15 14 13 14 14 17 19 16 18 21 22 21 25 29 30 36 39 32 30 32 32 34 36 37 40 40 36 36 36 34 41 47 46 42 43 55 67 69 83 94 89 92 94 94 93 89 89
13 13 12 12 11 10 10 9 10 14 15 14 12 11 10 9 9 10 10 10 10 10 9 9 10 10 11 19 36 41 24 15 18 16 16 17 17 18 16 15 16 16 14 13 14 13 16 18 17 17 17 18 20 31 37 30 32 35 30 31 32 30 33 35 35 37 36 36 35 30 35 43 45 42 38 47 61 67 75 86 93 94 95 96 95 93 89 88
13 13 12 12 11 11 10 8 10 14 15 13 11 10 9 9 9 9 10 10 10 10 11 12 14 15 16 24 35 32 19 16 16 15 17 17 17 17 17 17 17 17 15 15 15 14 17 17 18 17 16 21 24 32 36 30 28 35 37 35 34 33 32 33 32 35 36 34 33 29 34 39 40 41 36 48 64 70 79 85 89 96 96 95 96 93 89 87
14 13 12 12 12 11 10 9 12 16 15 12 10 9 9 9 10 10 10 10 11 13 15 16 16 15 13 21 28 21 16 17 15 16 17 16 17 17 17 18 17 17 17 17 16 18 19 17 20 21 20 23 27 31 31 30 27 32 36 32 39 40 29 31 31 31 33 28 31 30 29 35 39 41 37 45 65 73 78 82 86 95 97 96 95 94 91 88
13 13 12 12 12 11 10 9 14 17 17 15 11 9 10 10 10 10 10 13 15 17 17 17 16 15 15 20 22 18 16 17 15 16 16 16 17 17 17 17 17 17 17 17 17 17 17 18 21 24 24 25 32 34 27 28 27 30 32 27 44 55 37 33 32 28 28 27 32 30 28 42 46 41 42 52 68 75 76 81 86 91 95 94 94 94 93 90
11 11 11 11 11 11 9 9 15 18 18 16 11 11 13 9 10 10 12 15 17 18 16 15 17 20 25 24 18 16 16 15 15 14 14 14 15 17 18 16 16 16 16 17 17 16 16 17 19 24 31 37 39 31 27 31 26 28 31 29 44 58 51 37 32 31 26 28 36 33 34 47 51 41 41 58 72 74 76 81 84 88 92 92 93 94 93 89
11 10 10 10 11 10 9 10 16 19 20 17 12 14 15 12 13 13 15 16 16 17 15 18 21 19 24 22 16 16 16 14 14 13 12 13 15 16 16 16 16 15 16 17 15 17 17 15 19 27 32 38 36 31 45 51 39 33 33 49 54 49 61 53 38 36 25 32 40 34 39 40 40 36 40 61 72 72 74 77 83 86 88 90 91 92 92 89
12 10 10 9 10 9 8 11 17 21 21 16 12 14 15 14 15 15 16 16 15 18 20 26 25 21 25 20 14 16 15 13 14 13 13 15 17 17 17 16 15 16 16 16 16 17 16 17 25 31 32 39 46 49 64 66 60 55 38 59 71 49 64 61 42 44 30 34 38 30 43 43 35 36 43 60 70 72 69 70 80 84 86 89 90 91 91 88
11 10 9 8 9 9 10 14 19 22 20 15 13 14 14 14 15 16 15 14 18 21 21 24 22 24 30 21 13 16 14 14 16 12 12 17 19 19 18 16 16 16 15 15 16 16 14 22 32 36 36 42 55 61 65 70 79 79 50 50 63 48 54 48 38 53 43 36 39 32 40 43 36 36 45 60 66 72 72 68 75 80 83 87 88 89 89 88
10 10 9 8 8 8 12 17 20 21 18 16 15 15 16 17 18 18 15 15 21 21 16 17 17 23 29 19 14 17 17 15 15 13 13 17 19 19 17 17 18 16 17 16 15 17 16 25 34 38 45 46 57 56 43 58 78 80 67 57 57 48 46 46 41 48 48 43 43 43 42 38 34 31 40 57 62 68 72 68 69 72 77 83 87 89 87 87
9 9 9 9 8 9 15 19 20 19 19 21 20 19 18 16 16 16 17 16 21 24 18 16 21 30 30 20 16 17 17 16 15 14 12 15 18 18 18 20 20 18 26 26 18 22 24 37 47 42 48 47 55 55 27 42 66 62 63 59 58 59 50 51 49 45 49 49 46 48 46 37 32 27 27 42 56 63 64 61 62 64 69 76 83 87 85 86
7 9 8 9 9 10 17 19 19 18 21 23 19 18 16 18 22 17 16 18 22 25 21 23 31 36 30 21 19 18 16 17 15 13 14 18 16 16 19 19 23 26 34 34 24 34 40 50 56 40 44 46 51 64 43 44 63 56 58 56 55 63 57 51 55 59 53 44 46 47 44 38 28 25 21 28 46 55 54 54 56 58 63 69 77 82 83 83
9 10 8 10 9 11 19 19 18 18 22 21 18 24 30 38 41 29 25 31 31 27 24 29 29 26 24 20 20 17 15 16 13 14 17 19 18 19 22 25 37 39 39 38 28 41 53 54 58 50 53 52 48 64 57 52 62 54 54 60 60 61 59 47 45 62 55 35 45 49 43 38 27 24 22 22 37 46 47 49 51 53 56 61 67 74 78 78
14 13 11 12 10 14 20 19 19 20 23 23 21 33 41 42 37 27 29 34 34 30 27 28 23 19 19 18 20 18 17 16 12 16 16 19 22 19 24 37 47 39 42 53 41 47 58 47 51 63 64 54 49 61 56 47 52 52 51 54 59 58 55 45 35 56 58 33 40 47 39 34 27 26 25 27 34 36 39 42 44 49 51 54 57 63 71 73
15 14 14 13 11 16 19 18 22 23 22 23 27 41 46 40 33 28 30 30 28 28 26 23 20 21 19 16 20 19 19 20 16 17 17 22 26 24 36 49 47 42 52 66 56 55 58 46 52 67 62 51 59 71 61 47 48 55 57 48 51 57 53 50 45 55 54 33 37 46 41 35 29 29 31 33 36 34 36 38 38 42 45 49 50 52 60 65
13 15 16 13 11 14 18 19 24 23 17 21 33 40 38 36 34 31 32 33 31 30 29 26 21 23 23 18 19 20 21 23 22 20 19 26 33 39 52 55 58 60 57 60 60 56 47 43 56 64 55 42 51 72 67 52 51 56 54 43 49 56 42 41 49 52 47 40 44 46 44 38 32 36 34 36 46 45 43 43 42 44 43 43 45 47 51 56
14 16 16 14 11 12 17 19 21 21 17 22 30 29 30 35 34 33 39 41 39 34 29 26 23 23 24 20 17 22 24 24 26 21 19 28 36 43 47 52 66 67 60 64 66 56 39 38 50 53 58 48 40 62 62 42 45 57 56 46 46 47 35 37 52 50 43 46 48 44 42 36 35 41 32 30 44 47 49 51 47 48 48 46 46 46 47 50
18 17 16 14 11 11 16 17 18 22 21 22 23 23 30 33 25 27 43 52 49 45 35 27 27 23 22 20 18 25 27 24 26 21 20 28 36 41 42 47 55 50 57 65 53 42 34 37 44 40 52 57 42 48 49 35 38 46 50 48 40 37 40 49 58 49 37 40 42 40 40 36 37 38 28 31 41 39 44 49 45 47 51 51 49 45 46 48
20 19 15 12 13 13 15 18 21 25 26 25 25 25 25 27 25 24 43 62 56 49 38 27 26 25 21 21 25 32 28 21 23 20 22 25 31 39 44 51 47 36 53 60 44 41 37 37 42 37 44 55 49 46 45 43 37 27 37 52 48 43 47 54 54 45 39 38 39 43 42 39 36 27 26 42 45 33 32 37 41 49 52 52 50 44 44 45
21 20 14 14 16 14 17 26 30 28 28 30 30 24 17 22 25 23 39 57 50 40 35 29 26 23 23 25 30 27 14 15 20 18 25 26 27 37 44 51 42 36 59 58 35 37 44 42 42 46 52 50 44 46 48 46 33 25 41 57 55 48 49 54 47 45 52 48 47 53 46 46 48 32 34 45 34 25 26 27 36 45 50 51 48 46 45 44
21 19 15 17 17 16 24 34 36 32 31 38 34 22 19 21 22 34 49 43 32 30 30 33 28 19 26 32 32 27 18 24 20 12 27 26 24 39 44 48 45 44 64 56 28 33 47 44 39 44 49 45 45 50 50 40 27 34 51 55 54 50 51 58 52 55 65 51 48 58 44 44 54 37 36 41 25 26 31 28 34 40 46 50 46 45 46 45
20 21 18 18 18 22 28 29 34 34 30 35 32 20 19 19 27 54 59 35 28 35 32 30 20 20 42 45 44 48 36 33 26 20 34 27 20 35 36 47 61 54 57 57 45 46 49 49 54 47 32 33 50 58 56 42 29 38 53 55 60 65 65 62 56 62 69 53 48 57 42 37 48 34 27 28 22 31 40 36 40 40 41 47 49 50 48 48
18 21 19 20 22 22 22 22 28 32 26 25 26 23 19 29 57 67 43 24 29 37 36 29 19 31 57 50 43 54 45 43 49 38 38 36 31 39 38 46 66 64 62 65 59 58 58 57 60 50 35 40 50 53 59 53 37 41 58 61 60 67 71 71 73 68 60 55 57 60 46 34 39 34 25 21 21 31 36 30 29 27 28 32 39 51 55 52
19 20 20 25 29 25 25 28 24 23 25 20 20 26 24 42 79 69 27 20 33 37 35 33 37 50 61 46 31 46 51 50 56 43 36 47 50 53 47 38 53 72 74 65 55 57 60 54 52 51 51 53 42 37 56 68 60 56 61 52 40 46 54 64 79 64 44 51 58 56 45 33 35 33 25 26 30 31 29 24 21 21 23 24 33 53 64 61
20 19 20 23 27 24 30 35 24 18 22 22 26 43 49 50 57 47 30 26 32 40 33 29 44 49 53 50 36 46 51 35 43 49 44 55 60 55 47 35 38 49 48 45 42 43 50 58 62 55 50 49 36 30 46 67 69 57 50 44 42 46 42 47 61 51 41 49 45 38 32 26 30 26 17 21 23 22 25 27 26 24 24 28 38 54 68 72
24 24 21 21 23 19 24 27 19 18 23 26 38 59 71 57 35 33 41 30 23 40 41 38 52 48 39 36 30 44 44 25 39 49 43 56 62 52 52 54 45 26 20 30 31 30 42 59 60 46 42 44 35 25 25 36 42 34 35 45 49 42 31 38 50 39 38 46 37 31 29 25 27 24 22 21 16 21 27 29 34 35 33 37 44 54 65 72
33 29 22 23 25 21 26 25 21 26 24 31 53 55 44 37 29 29 37 37 40 51 54 50 52 48 36 25 29 42 32 22 42 47 41 49 49 48 54 57 50 36 33 34 27 24 26 33 40 39 40 38 31 32 28 26 33 37 37 39 42 39 29 36 47 37 39 53 45 31 32 41 36 28 34 31 24 32 33 34 44 46 48 53 52 56 63 64
41 35 27 25 24 25 30 27 26 27 21 42 72 58 31 27 29 28 33 46 54 54 57 58 49 42 42 42 50 49 23 19 38 40 38 36 31 42 45 42 47 48 40 30 25 30 22 19 36 45 43 39 37 47 45 28 28 41 41 31 39 50 38 38 54 49 40 52 58 41 39 53 40 24 33 33 28 32 28 28 35 38 48 52 45 49 59 61
43 41 33 24 22 27 27 26 29 25 34 65 71 55 53 43 28 37 48 47 47 47 48 49 41 32 32 38 48 46 30 30 37 30 29 33 33 42 46 47 54 47 37 30 25 28 23 23 41 48 41 42 44 49 51 36 23 29 35 36 44 46 35 36 54 57 43 39 50 45 40 49 38 28 37 32 24 27 25 23 23 27 38 35 28 36 46 50
43 41 31 22 23 26 23 26 26 22 50 76 55 45 63 49 34 60 71 52 48 54 45 32 27 25 23 25 32 40 34 32 37 28 24 30 32 41 52 53 52 47 45 41 28 26 29 27 40 47 35 41 55 51 51 51 37 28 31 38 41 38 42 47 46 54 55 45 46 46 47 53 42 35 39 30 22 26 26 24 21 21 24 20 20 27 32 36
40 40 31 23 22 23 25 25 20 31 67 75 49 45 56 46 49 74 80 64 54 51 42 32 29 30 28 23 24 32 28 24 34 33 27 25 23 38 55 49 46 54 55 47 33 32 36 26 32 48 41 45 57 43 39 50 43 35 36 36 31 30 50 58 43 45 48 43 51 53 51 57 51 43 37 24 23 26 24 24 23 22 21 21 24 25 29 32
34 47 43 25 19 24 25 20 26 54 69 52 42 48 49 56 71 83 86 76 57 41 34 35 35 32 31 28 26 28 27 26 28 24 22 20 16 30 48 43 43 56 59 53 42 36 34 23 25 42 43 43 42 34 43 54 49 47 45 42 36 35 50 54 46 54 51 43 54 52 42 49 57 55 37 19 23 26 23 26 25 25 25 25 27 28 30 33
33 55 47 20 17 24 20 20 46 78 66 39 51 60 55 66 79 87 94 82 60 41 32 35 33 27 28 32 31 27 31 38 33 23 23 24 20 27 40 43 45 56 60 52 43 38 31 24 30 41 43 38 30 31 44 50 54 58 51 48 43 37 47 47 42 59 57 45 54 52 41 44 53 51 30 17 24 23 23 29 28 29 29 27 29 31 32 35
43 59 45 21 18 22 28 32 48 78 68 44 58 65 64 77 79 84 96 88 70 52 44 49 43 34 36 31 26 27 34 46 46 35 31 29 23 21 34 51 53 51 47 37 38 42 32 29 41 46 40 31 26 34 43 45 54 57 52 58 56 47 50 45 44 61 57 49 58 53 38 38 43 41 25 17 24 23 25 32 32 33 33 30 33 33 34 37
55 53 34 22 15 16 41 50 52 82 79 48 54 64 67 79 77 76 82 76 69 59 53 59 54 46 44 34 34 39 36 40 48 42 36 35 27 21 41 66 64 54 51 44 47 54 47 43 48 46 35 27 31 39 45 52 55 49 47 56 58 58 53 40 48 68 61 56 66 62 48 37 31 30 25 20 23 25 28 34 36 37 34 34 36 34 35 37
64 44 22 21 19 22 42 43 45 78 84 61 66 72 70 79 75 70 70 60 56 55 50 54 50 38 37 40 42 38 29 34 45 46 45 46 40 42 69 82 63 48 48 46 48 51 50 45 43 46 42 34 40 46 45 50 47 38 45 52 52 60 58 47 59 73 63 55 57 59 57 41 25 27 29 25 26 29 33 38 39 37 35 35 36 35 37 38
67 44 33 25 15 21 37 42 45 63 72 69 70 65 61 71 72 68 71 66 59 54 48 51 50 37 40 50 41 31 28 26 30 38 42 42 45 62 89 90 60 40 41 50 49 38 40 47 43 43 42 34 41 48 45 46 42 35 46 53 50 54 56 53 59 62 59 54 50 57 59 39 25 30 30 29 34 37 39 41 39 37 37 36 36 37 39 40
51 41 50 39 25 26 39 66 79 73 77 74 62 59 55 55 67 73 74 75 71 60 46 44 51 51 54 53 42 44 45 25 20 35 37 36 47 68 93 92 67 54 62 75 63 33 35 51 41 31 36 35 34 37 38 44 45 42 45 46 44 49 51 47 49 56 60 57 54 62 58 35 24 28 28 33 42 43 42 41 38 38 38 38 39 41 42 45
36 38 52 46 44 48 49 77 87 73 82 74 47 55 59 50 65 75 67 64 64 60 49 43 51 54 51 45 39 49 54 36 30 39 41 45 55 72 95 98 82 78 84 84 70 51 52 58 44 35 40 37 30 29 35 43 42 38 42 46 47 52 53 47 52 60 56 52 51 49 45 38 32 31 34 41 45 44 43 41 38 38 38 39 41 44 49 52
31 38 55 38 32 45 44 60 69 57 63 55 27 39 59 58 58 56 54 58 58 59 54 50 50 42 39 46 43 45 56 52 45 45 46 55 65 72 87 92 89 91 86 70 61 58 54 54 54 50 43 38 32 30 37 44 40 36 43 50 51 56 58 55 59 59 50 54 57 42 37 44 41 37 43 48 45 43 42 40 39 40 41 41 43 51 58 58
30 39 58 38 28 39 33 40 63 61 50 42 34 39 54 63 56 44 49 59 59 57 46 42 52 48 47 54 41 36 52 52 49 55 53 54 60 61 65 75 86 92 79 59 58 62 56 59 69 63 53 51 45 39 42 46 45 46 52 55 56 60 65 63 62 57 51 58 57 41 40 48 45 44 50 48 44 44 43 41 41 43 44 46 52 60 64 62
45 45 55 51 48 55 50 53 68 67 54 49 48 43 46 61 62 54 58 58 56 61 47 34 50 60 59 57 40 34 48 38 25 41 56 56 55 54 51 56 75 88 76 58 60 64 58 66 80 74 65 61 53 49 53 55 57 58 58 59 57 56 63 66 63 58 57 60 55 47 51 54 48 49 51 46 44 46 44 43 47 49 49 52 60 65 65 64
44 39 42 49 52 55 60 66 65 57 52 47 43 44 52 62 61 57 61 52 42 54 53 36 45 63 65 63 48 36 46 39 12 17 43 50 47 53 52 50 69 87 76 61 63 59 48 62 84 79 65 57 53 55 57 58 65 63 54 53 53 51 58 62 60 60 62 62 59 58 65 67 56 49 50 48 47 48 48 51 55 54 53 60 66 67 66 66
38 38 40 42 45 46 49 60 63 54 47 42 39 43 48 55 63 58 51 47 42 49 56 45 47 65 70 71 63 45 47 53 34 30 48 48 41 47 43 40 66 87 77 71 76 62 49 67 86 78 64 57 55 62 62 57 62 63 57 56 56 55 56 54 53 59 58 55 58 63 69 69 59 52 53 53 52 54 56 58 59 55 57 65 69 68 67 66
32 34 46 46 44 49 49 49 50 46 50 54 46 41 40 49 69 59 31 38 57 59 60 59 54 58 64 71 70 54 46 53 51 54 65 57 47 53 52 49 65 81 78 77 83 74 64 73 77 67 66 67 63 66 64 55 54 56 51 48 48 47 48 47 48 51 48 45 53 63 65 61 57 57 60 59 57 59 60 60 59 58 61 67 69 68 67 66
Wind_Speed
5 2 1 2 1 2 3 3 2 3 4 4 5 6 6 7 7 7 7 6 6 4 4 3 2 3 4 4 2 1 2 3 2 8 10 11 17 17 14 13 12 12 10 10 8 6 6 5 6 7 3 1 1 2 1 3 2 3 2 1 2 3 3 4 4 3 2 2 4 3 1 4 2 1 2 3 7 4 3 3 2 4 4 3 3 4 18 25
3 2 3 3 3 2 2 2 2 3 3 3 4 4 4 4 5 5 6 6 5 4 3 3 3 4 5 4 3 1 3 3 1 7 11 15 19 16 13 11 11 11 11 9 6 5 5 3 7 9 3 1 2 1 0 1 2 3 3 1 3 5 4 3 3 2 1 1 4 4 1 2 4 3 4 1 1 1 2 1 3 3 2 3 4 12 21 23
3 4 4 4 4 4 4 3 3 3 2 2 1 2 2 2 2 3 4 5 5 5 4 4 4 5 5 4 3 2 3 1 2 5 12 18 16 12 10 10 10 11 11 9 7 6 4 5 8 5 2 0 3 1 0 1 1 2 3 2 5 5 3 2 1 1 2 2 3 4 1 1 2 2 3 3 3 3 4 4 2 3 4 4 6 11 17 20
3 2 3 4 5 6 6 5 4 3 1 0 1 1 2 2 1 1 2 2 4 6 5 5 6 6 6 4 2 3 2 3 2 5 13 17 13 10 9 9 10 10 10 10 9 7 7 7 5 1 2 1 4 2 1 3 2 1 3 4 5 4 3 2 2 2 3 2 2 2 1 1 1 1 3 5 4 4 7 7 8 9 9 9 8 10 15 18
3 1 3 4 5 6 6 5 4 3 2 1 2 3 3 3 2 1 1 1 4 6 6 6 6 6 6 4 3 3 2 3 3 7 13 15 12 10 9 9 8 9 10 10 9 8 7 5 1 2 2 1 3 3 2 4 2 1 1 3 2 3 3 3 3 3 4 0 2 1 1 2 0 0 3 7 6 6 6 6 7 8 10 13 12 12 14 16
2 2 3 4 5 6 7 6 5 4 4 4 4 4 4 4 2 2 1 2 5 7 6 6 6 6 5 3 3 2 3 1 5 10 13 13 11 11 12 10 8 9 10 8 8 6 5 3 3 2 2 1 1 1 4 4 1 2 2 1 3 1 3 2 2 2 2 3 3 2 2 0 1 3 3 6 8 6 4 4 5 6 12 16 15 14 13 14
2 2 3 5 6 6 7 7 5 5 5 5 5 4 4 3 3 2 2 4 7 8 6 6 6 6 5 4 5 3 4 1 8 11 13 14 10 11 13 9 7 8 8 8 7 4 4 6 3 1 3 3 1 2 4 4 2 2 1 2 2 2 3 3 2 1 2 5 3 2 1 0 3 3 0 4 7 3 3 4 2 9 14 15 13 13 13 14
2 3 4 5 5 6 7 7 6 6 6 6 6 6 5 4 3 3 4 6 9 8 7 6 6 6 6 6 5 4 3 3 9 11 14 14 10 11 12 7 6 8 8 8 6 2 3 5 3 1 3 1 1 2 3 4 5 3 2 2 0 0 2 3 2 1 2 3 1 2 1 4 6 2 2 6 6 3 2 1 6 9 11 11 10 11 12 13
3 3 4 4 5 6 7 7 7 7 7 7 7 7 6 4 4 4 6 9 9 8 6 6 6 7 7 5 5 4 3 5 9 11 15 14 10 10 9 7 8 10 9 8 7 5 3 2 1 0 2 1 1 2 3 3 2 1 3 3 2 2 3 1 1 3 2 1 3 2 3 6 4 1 4 6 5 5 2 5 5 7 8 8 8 10 11 12
4 4 4 4 5 6 6 7 7 7 8 7 7 7 6 5 6 7 8 9 8 7 7 7 7 6 4 2 6 3 3 6 9 12 14 13 10 8 9 10 11 11 9 7 9 8 3 2 3 1 3 1 2 2 2 2 1 2 3 3 2 2 3 0 1 3 2 2 2 1 5 6 2 1 4 5 4 5 5 5 3 6 8 7 7 8 12 13
4 4 4 4 4 5 6 6 6 6 6 6 6 7 6 6 7 8 7 7 7 9 10 10 10 9 8 6 6 3 3 7 11 12 13 12 9 7 9 11 10 11 9 7 8 6 4 1 3 1 2 1 1 2 2 1 1 2 4 2 5 5 4 3 1 3 3 1 1 2 5 5 1 1 6 5 5 6 6 7 5 6 7 7 7 7 9 12
3 4 4 4 4 4 6 6 5 5 6 6 7 7 7 7 7 7 7 7 9 12 11 9 8 7 10 10 5 1 4 8 12 12 11 12 9 6 6 8 8 8 8 7 6 6 6 6 5 4 0 0 1 2 1 1 1 2 2 1 6 7 5 5 3 4 3 1 2 1 5 6 1 6 7 3 6 6 6 7 6 7 7 6 7 6 7 12
2 2 3 3 3 4 5 5 5 5 6 7 7 7 8 7 8 7 7 8 9 10 7 5 4 3 4 5 1 3 5 9 12 13 13 13 7 3 3 5 6 5 6 6 7 6 7 8 6 5 1 3 1 1 1 2 3 1 1 2 4 7 5 6 3 4 4 1 4 3 3 7 6 10 8 4 7 7 6 7 7 7 7 6 7 6 7 11
3 3 2 2 3 4 4 5 5 5 6 6 7 9 11 11 10 9 8 8 7 5 3 3 3 3 4 1 2 3 6 8 12 17 18 15 8 1 3 4 3 4 5 7 7 6 8 8 5 5 2 4 0 2 3 5 4 1 3 2 3 3 4 7 3 4 4 2 4 6 2 8 8 11 7 6 8 8 8 8 7 7 7 7 7 7 8 11
4 4 3 3 3 3 4 4 5 6 6 6 9 12 13 13 11 9 8 7 6 4 3 4 4 3 4 1 1 1 6 8 13 18 18 15 10 4 6 7 3 4 6 7 7 7 8 7 6 4 2 3 4 5 4 4 4 3 2 3 4 1 4 8 3 2 2 3 4 6 4 9 8 10 5 6 7 8 9 9 8 9 9 9 8 8 9 9
4 4 4 3 3 3 4 4 6 7 8 8 9 11 10 9 7 7 6 5 6 6 4 5 3 5 5 1 2 3 5 8 11 17 16 11 7 5 11 10 4 5 8 7 6 6 5 8 5 3 3 5 6 4 4 4 4 4 2 2 4 2 3 6 4 3 2 3 5 2 3 8 8 9 3 5 7 8 9 9 9 9 10 9 8 8 8 8
2 4 5 5 3 3 3 5 7 9 10 10 10 9 7 5 4 5 5 6 7 6 7 6 3 5 4 2 2 3 6 9 10 16 18 9 4 7 11 7 3 9 10 6 5 5 4 5 2 2 4 5 3 4 5 4 3 4 3 1 3 2 3 5 4 4 5 2 4 2 3 11 15 12 5 5 8 8 9 11 10 10 9 9 8 8 8 9
3 4 6 6 3 3 4 7 10 11 12 12 12 11 10 9 7 6 6 6 4 3 5 7 5 4 2 4 2 5 11 12 10 15 18 9 4 9 8 3 4 10 8 5 6 6 4 4 2 2 4 5 4 5 3 2 2 2 2 2 3 3 3 4 4 4 6 4 4 4 6 14 18 16 9 6 8 9 12 11 10 10 9 8 8 8 9 10
5 4 4 5 3 2 4 10 11 11 12 13 14 12 11 11 10 10 11 8 3 2 2 3 3 3 2 3 4 10 12 8 7 14 19 13 8 8 6 3 3 5 6 3 4 5 3 3 5 3 3 3 2 4 4 4 5 5 4 2 4 5 4 6 6 4 4 5 6 5 7 13 17 19 14 7 7 10 12 11 9 9 8 8 8 9 10 10
5 4 3 3 2 0 5 11 11 11 11 11 10 6 4 4 5 6 10 11 3 3 3 1 0 2 2 3 7 12 8 3 4 13 21 17 10 6 6 6 6 6 5 1 4 3 4 5 3 1 3 3 4 4 4 3 5 4 2 2 4 5 6 6 5 5 5 4 6 4 8 14 17 20 17 9 6 9 11 10 10 9 8 8 9 11 11 12
5 3 2 2 2 2 7 12 11 11 10 7 4 2 2 2 2 0 2 5 1 3 4 1 1 2 2 2 7 9 3 2 4 14 23 16 6 4 5 6 6 5 4 2 3 3 5 5 0 5 7 5 3 2 1 0 2 1 2 1 3 3 6 6 3 4 6 5 5 4 9 16 17 17 16 9 6 9 10 10 11 11 10 9 10 11 11 11
6 4 2 1 4 5 9 13 12 11 8 6 4 3 3 3 3 5 4 3 2 5 6 3 3 3 3 2 6 6 4 5 6 12 22 17 6 4 3 5 6 1 5 4 2 5 5 2 5 7 5 2 2 4 5 3 3 2 1 0 3 3 5 6 3 5 6 4 5 7 9 16 18 15 14 10 7 9 8 9 10 10 10 9 10 10 10 9
6 4 2 2 6 7 10 14 13 10 6 5 5 4 5 5 6 5 4 4 1 4 4 3 3 3 4 3 7 7 5 5 3 9 18 14 5 3 3 5 5 2 6 5 4 3 2 2 6 4 1 3 4 5 6 5 4 2 1 0 3 3 2 4 4 7 7 3 4 7 8 12 13 10 10 8 5 6 6 7 9 8 9 9 9 8 9 10
6 4 2 2 7 9 11 14 11 6 2 3 6 6 8 9 7 4 3 4 0 2 1 0 2 1 1 2 6 5 3 2 1 6 13 9 2 2 4 3 4 4 5 3 6 5 1 4 3 3 5 4 2 5 6 4 4 3 2 3 3 3 1 3 5 8 8 2 2 5 7 7 6 6 8 7 4 5 6 5 8 7 7 7 7 7 9 10
6 3 1 3 7 8 11 12 8 5 2 1 5 7 11 10 4 1 2 4 2 3 2 1 1 1 1 3 5 1 2 2 1 4 8 6 2 2 3 2 4 3 2 0 6 5 1 3 1 4 5 5 3 2 2 3 3 5 3 5 5 2 2 2 6 7 6 4 2 5 5 6 7 6 8 6 7 8 6 5 9 8 6 6 7 9 9 9
6 3 2 4 7 9 9 7 5 5 3 2 5 8 11 8 2 1 3 5 2 4 3 1 1 2 3 4 4 1 3 3 4 4 4 5 2 2 3 2 2 2 4 2 2 2 1 1 3 3 3 5 4 2 2 4 4 4 3 4 5 4 1 2 5 4 2 4 4 4 3 4 8 9 7 4 8 11 9 7 9 8 6 6 7 9 8 8
6 3 3 5 9 9 6 4 6 7 3 3 7 9 9 7 3 1 3 5 3 2 1 1 1 3 3 3 3 4 2 4 4 2 3 3 4 2 4 2 2 1 2 2 3 0 1 2 4 3 4 4 2 2 4 5 4 3 3 4 4 1 2 0 2 1 2 4 5 2 4 2 6 7 3 4 8 11 10 10 9 7 7 7 8 9 8 8
6 3 3 6 9 8 4 4 8 7 2 4 8 9 9 6 3 0 5 4 2 0 1 2 0 2 3 4 5 5 0 3 2 2 4 5 4 3 4 1 4 2 1 5 1 2 1 0 2 2 3 1 3 4 5 6 2 5 4 4 2 3 4 4 4 2 1 2 5 4 2 1 6 7 2 5 5 8 9 10 9 8 7 7 8 9 8 8
6 2 2 5 8 7 3 4 8 6 3 5 8 10 9 5 1 4 6 2 1 1 0 1 0 2 5 5 6 4 2 2 1 3 5 5 4 4 3 2 5 4 1 5 3 4 0 2 4 5 3 3 5 5 5 6 2 4 2 1 2 2 1 3 4 2 2 3 4 5 0 1 5 8 5 4 3 5 8 8 8 8 8 8 8 8 7 7
7 2 2 3 6 6 3 3 6 5 3 7 11 10 7 3 3 6 3 1 0 1 1 1 1 3 6 5 4 5 3 2 3 4 4 3 4 6 3 1 5 5 1 3 1 4 2 2 3 4 3 5 4 3 4 5 4 2 4 3 4 5 3 3 2 3 4 2 5 5 2 1 3 7 5 3 2 4 5 7 9 9 9 8 7 6 7 6
10 4 3 3 4 4 3 3 5 5 6 11 13 8 4 2 5 6 1 2 0 1 1 2 2 4 6 4 2 4 4 4 5 4 4 3 5 7 4 1 3 4 3 5 3 4 4 2 2 2 2 3 2 1 1 0 1 3 4 3 4 4 3 4 4 4 3 3 5 4 2 2 2 6 5 5 5 4 5 7 10 11 10 9 7 6 6 5
11 9 4 2 3 3 1 3 5 7 10 13 9 4 4 3 3 2 1 3 1 2 0 1 2 3 4 2 1 3 3 3 4 4 2 2 3 3 2 1 1 4 4 3 3 5 3 3 3 3 2 3 3 1 3 5 5 4 3 4 4 4 3 3 3 2 2 4 3 2 2 1 5 9 10 10 10 8 6 7 8 9 10 9 8 6 5 4
9 10 8 4 2 2 2 2 6 10 13 11 4 4 6 4 1 2 2 2 1 1 0 1 2 2 2 2 2 3 1 1 2 3 0 1 3 2 2 2 2 2 2 2 2 5 4 4 3 2 2 1 4 2 2 2 2 2 1 3 2 2 3 3 4 3 4 4 3 2 2 3 5 7 9 10 9 8 7 7 7 7 8 8 7 6 6 5
7 8 8 6 4 3 4 4 8 13 11 6 3 5 5 2 2 2 1 3 1 2 1 1 2 3 2 1 2 2 1 1 2 3 2 2 3 1 2 3 1 1 2 2 1 1 1 4 3 2 2 1 4 4 3 3 1 2 2 4 3 3 1 4 4 3 5 4 3 3 1 3 3 4 5 6 6 6 5 6 5 4 5 5 6 6 6 6
5 6 7 6 5 5 5 6 9 12 7 3 6 5 3 3 3 2 2 4 1 1 1 1 2 3 3 2 2 1 1 1 2 3 2 1 1 2 2 2 1 2 3 2 2 1 2 5 5 2 1 2 2 2 3 4 1 2 2 3 1 4 4 2 4 4 2 4 3 3 3 5 5 6 6 2 4 6 7 8 8 7 6 6 6 7 6 6
4 4 6 6 5 4 5 6 9 7 3 4 6 2 3 3 2 3 3 2 2 2 1 1 3 3 2 4 2 2 1 1 2 2 1 1 3 3 2 3 1 2 3 2 1 1 1 5 4 2 2 1 2 2 1 1 1 0 1 1 4 4 5 2 3 2 3 2 4 2 3 5 4 7 8 6 8 9 10 11 10 8 8 9 8 7 7 7
3 3 3 5 5 3 4 6 7 4 2 6 4 2 4 2 2 3 2 1 2 3 4 1 0 1 1 2 3 3 2 1 2 2 1 2 2 3 3 2 1 2 4 3 2 2 2 4 5 1 1 2 1 1 2 2 2 3 2 4 3 1 4 3 1 4 3 2 4 2 4 6 4 5 6 8 10 10 9 9 9 9 10 10 9 8 8 7
1 2 2 5 5 2 5 5 4 2 4 6 2 2 2 1 1 2 2 1 1 3 4 2 2 1 2 2 2 3 1 1 2 1 1 2 2 3 4 2 2 2 2 3 1 1 3 3 6 0 2 3 3 1 3 4 1 3 3 3 1 1 1 1 1 2 2 3 5 4 4 4 4 5 4 7 7 8 9 8 8 11 10 8 8 9 9 9
0 2 2 5 4 3 5 4 2 4 5 3 2 2 1 1 1 1 2 2 1 3 2 3 1 1 2 3 2 3 1 2 1 0 1 1 2 2 4 3 2 1 1 3 2 2 2 1 5 3 2 2 3 1 2 2 2 3 2 2 1 3 3 2 1 2 2 2 4 5 6 5 5 6 2 5 6 5 7 7 8 9 8 7 7 8 9 9
1 2 1 4 4 3 4 3 2 5 4 2 3 2 0 1 2 1 2 2 1 1 2 3 2 1 3 3 2 2 1 2 3 1 2 2 2 2 2 3 4 3 1 3 2 1 2 2 4 5 3 1 1 3 5 5 2 2 0 2 1 1 1 1 1 2 4 2 2 3 6 6 4 5 3 5 5 2 3 7 8 8 7 7 8 8 8 8
3 3 2 5 3 3 3 4 3 3 3 1 2 2 0 1 1 1 2 1 1 1 2 3 3 3 3 2 2 2 1 2 3 2 2 3 2 2 2 3 6 5 2 2 1 1 1 3 4 4 3 2 5 4 5 6 5 5 4 4 4 3 2 0 3 2 1 3 4 2 7 9 4 3 2 2 2 3 5 7 7 7 8 8 8 8 8 8
4 2 3 4 2 1 4 4 2 2 3 2 1 1 1 2 2 0 1 0 0 1 0 1 2 3 3 2 2 3 2 1 3 3 3 4 4 4 1 2 5 5 4 2 3 3 3 3 1 5 5 6 5 2 2 5 5 4 3 3 3 3 4 3 4 4 1 2 3 2 4 9 5 3 4 3 3 5 6 6 6 7 7 8 8 9 10 9
3 2 1 3 2 1 5 3 2 3 1 2 1 0 0 2 2 1 1 1 1 1 1 0 2 2 2 2 2 3 3 3 4 4 3 3 4 3 1 1 5 5 4 2 2 2 2 2 1 5 5 4 4 4 2 2 3 2 1 2 3 3 4 5 5 3 1 4 2 1 5 8 4 3 4 3 3 4 5 6 8 7 7 8 9 10 10 10
2 2 0 3 2 1 3 2 2 0 2 2 1 1 1 1 3 3 2 3 2 2 1 1 2 1 1 2 2 3 4 2 2 3 3 3 2 1 4 2 3 3 1 3 3 1 2 1 1 3 6 7 6 6 6 4 1 2 3 2 3 3 4 2 2 3 1 6 4 3 7 8 2 3 3 5 9 10 9 8 7 6 7 8 8 9 9 8
2 0 1 3 4 4 2 4 4 3 2 1 1 2 1 0 2 4 4 3 2 3 2 1 1 1 2 1 1 1 3 2 2 2 0 2 3 1 4 5 1 2 2 2 2 1 2 2 2 1 3 4 5 5 5 4 2 2 2 2 3 4 4 2 0 1 3 5 2 4 8 11 7 7 8 9 10 10 10 9 8 7 6 7 7 7 7 7
1 0 2 4 5 5 2 1 4 4 4 3 0 2 3 1 2 1 3 2 2 3 1 1 1 2 2 1 1 2 4 3 2 1 1 3 3 1 2 4 3 2 1 1 2 2 1 1 3 6 7 6 8 8 2 1 3 6 7 6 5 5 5 3 2 2 5 4 5 9 12 12 13 11 10 10 10 9 8 9 9 8 8 9 8 6 6 6
1 1 2 0 2 2 2 2 3 3 2 4 2 2 3 3 2 1 1 2 1 2 1 1 2 3 3 3 3 3 3 1 1 2 3 5 3 2 2 2 2 1 1 1 1 3 3 3 5 8 10 10 11 10 4 2 6 10 11 12 10 5 5 5 6 8 4 1 8 15 12 10 12 9 8 10 11 10 9 10 9 8 8 9 8 6 7 8
1 2 2 2 1 1 0 1 3 4 1 2 2 1 3 3 2 2 2 1 1 1 2 1 3 7 8 6 4 2 1 1 2 4 3 2 2 1 2 1 0 3 3 1 1 3 4 4 5 5 7 9 10 11 9 6 7 9 10 13 13 7 7 9 13 12 6 5 12 15 13 13 13 9 8 9 9 9 10 10 8 7 10 10 7 7 9 11
1 1 0 2 0 3 3 1 3 5 3 2 1 2 4 5 5 5 2 2 2 3 3 3 7 9 9 6 5 3 4 3 3 5 3 2 2 2 1 2 1 3 2 2 1 2 4 3 3 2 5 8 9 11 10 6 6 7 11 13 12 11 10 11 13 11 8 11 15 14 17 16 9 6 8 9 8 7 7 7 8 10 13 10 7 9 10 11
1 2 1 2 2 1 1 2 4 4 2 1 2 3 4 6 7 5 2 5 4 3 3 5 8 7 7 7 6 6 8 7 3 5 5 4 2 3 3 3 3 2 2 2 1 1 1 2 1 2 4 8 6 4 4 4 6 9 14 13 10 10 10 7 7 7 5 9 12 11 12 11 4 6 9 10 8 8 8 9 11 12 11 8 7 10 11 12
1 2 3 3 1 1 1 2 4 4 1 1 3 4 3 6 8 5 3 6 7 6 8 9 6 2 4 6 8 11 11 8 5 5 7 6 4 4 4 3 6 5 2 2 1 1 2 2 2 5 3 6 2 3 4 5 7 9 12 11 7 6 5 3 3 4 4 7 9 7 5 5 5 7 10 10 9 11 12 12 13 13 9 6 8 10 11 12
2 1 2 4 1 1 2 2 3 3 2 3 5 5 3 5 6 5 2 3 3 5 8 9 6 4 3 5 11 13 9 6 6 6 5 4 1 2 2 2 6 7 5 5 2 1 4 2 1 3 1 6 4 5 7 6 5 6 5 4 4 4 2 2 1 3 6 6 5 4 4 5 7 8 11 12 13 14 13 12 14 13 9 7 9 11 12 13
Wind_Direction
120 139 303 359 338 272 262 259 266 274 269 268 267 268 269 265 266 263 259 258 256 259 257 259 248 244 239 230 246 220 164 141 103 39 35 5 350 343 339 338 338 341 335 330 331 325 329 355 3 356 2 192 196 222 236 186 123 65 108 134 230 211 214 202 190 211 179 253 285 268 182 120 161 229 151 39 36 67 56 45 23 10 20 21 351 158 159 163
108 42 2 4 346 330 330 338 343 320 303 290 281 273 272 268 271 267 262 258 250 253 249 242 234 229 225 223 231 176 144 154 35 29 17 356 350 343 338 343 345 346 344 346 348 351 4 343 335 356 47 145 287 247 245 246 141 132 137 143 229 206 213 213 189 236 182 265 283 267 220 165 198 172 144 123 300 136 102 312 343 358 8 57 92 136 152 158
91 32 2 2 360 12 17 12 2 342 333 310 295 287 296 305 294 287 269 250 236 226 216 216 208 209 210 214 205 138 149 132 12 0 356 353 352 345 344 344 345 349 349 351 338 325 328 304 311 340 60 245 282 284 330 298 205 181 129 162 246 209 197 264 229 252 249 263 281 266 257 151 214 141 149 177 188 194 201 216 211 235 215 152 143 144 154 160
97 52 343 2 7 14 17 11 2 357 19 29 328 320 314 328 323 316 287 242 213 198 193 193 189 193 197 203 173 145 131 61 24 328 350 356 355 353 351 340 340 348 346 343 331 315 302 302 305 320 90 289 302 15 203 254 224 172 137 191 235 177 148 258 258 317 290 245 230 258 80 98 270 136 164 146 145 241 238 216 197 205 188 168 169 160 165 168
105 78 355 10 11 17 21 19 20 33 43 9 346 337 342 358 3 8 345 204 182 178 178 177 178 180 185 191 151 147 79 45 330 340 355 358 1 358 353 341 338 341 340 337 326 323 309 301 23 49 69 263 324 18 258 250 158 116 191 204 225 149 149 245 241 295 293 214 90 85 154 199 270 184 168 156 182 234 234 222 207 194 175 169 168 166 172 175
85 25 9 12 16 22 24 25 27 30 23 9 5 360 2 8 23 71 121 167 170 168 172 174 172 169 177 177 145 127 93 117 324 354 356 356 1 359 359 342 334 342 341 339 335 348 351 2 59 46 47 3 314 229 266 291 145 200 262 346 350 95 149 228 234 262 245 110 117 163 205 293 46 276 203 177 216 226 229 257 230 186 168 166 164 165 173 180
41 7 8 11 14 20 22 25 25 24 21 19 25 26 20 22 46 99 139 157 162 164 170 166 161 164 160 139 131 82 94 138 338 356 354 355 352 352 2 342 335 351 351 4 360 17 50 37 35 146 74 20 312 251 281 326 19 133 234 325 349 66 134 209 204 216 126 119 178 174 99 299 195 245 324 222 240 227 262 293 166 156 155 158 162 171 179 185
351 346 360 6 8 14 18 19 18 21 25 29 34 37 38 39 57 97 132 152 160 161 161 156 155 154 143 137 127 56 47 322 341 357 351 350 348 356 4 348 354 5 23 40 23 58 81 47 17 82 73 6 244 296 332 11 21 81 158 224 214 190 210 219 158 50 79 105 23 78 65 254 216 205 303 253 232 192 252 58 117 135 144 158 168 178 184 189
315 326 346 354 358 6 11 13 13 20 29 36 35 37 47 53 72 104 131 148 153 150 146 141 138 133 131 123 97 62 340 335 353 355 348 345 346 2 13 18 20 21 44 51 36 52 73 84 314 59 125 227 145 336 348 29 337 159 171 191 164 247 243 233 17 360 7 38 17 35 302 281 254 261 285 262 199 181 152 100 123 140 151 173 177 183 187 192
292 307 325 337 345 356 4 10 10 21 35 41 40 48 64 74 93 112 130 139 137 132 126 117 109 118 143 109 75 71 323 0 6 353 353 348 343 3 28 31 25 26 36 34 32 44 73 153 251 226 152 188 67 350 347 73 198 163 136 141 88 326 287 357 294 318 345 359 35 40 280 280 299 336 268 264 186 167 126 125 159 159 173 188 186 193 192 197
289 294 301 314 328 346 1 11 14 28 45 52 55 67 77 83 99 112 120 121 119 119 115 105 96 97 99 86 89 83 335 3 5 358 360 357 352 4 26 23 17 19 18 22 32 34 44 12 280 155 111 57 65 358 354 113 164 144 119 78 2 349 330 12 7 313 337 347 90 146 262 275 354 237 237 238 180 161 148 171 193 184 197 199 196 202 196 203
288 285 288 301 319 341 4 16 22 41 55 60 63 75 87 95 101 106 107 106 116 121 115 98 95 105 84 71 90 95 10 15 10 4 2 2 358 350 11 9 2 8 1 8 12 14 20 356 19 75 73 156 122 20 17 200 119 137 102 15 327 359 357 335 338 315 345 324 299 345 293 297 249 230 243 215 164 159 162 190 204 205 211 211 210 211 205 208
323 304 294 299 322 344 8 22 37 57 63 64 68 77 94 108 103 98 98 100 118 123 112 78 78 132 89 65 100 69 32 19 13 6 3 2 359 331 344 345 342 355 344 338 338 358 5 351 41 86 115 100 121 283 98 13 60 153 25 75 329 4 349 313 332 330 345 329 334 25 304 287 255 251 254 183 162 156 178 210 211 214 217 218 216 215 217 212
25 2 330 319 337 354 13 32 58 75 71 73 83 88 99 107 101 94 92 96 113 112 89 55 59 103 96 95 176 67 20 8 8 4 359 355 0 344 308 324 320 334 318 310 323 344 348 347 51 88 70 86 29 338 33 4 23 350 332 43 13 4 293 299 326 344 345 329 26 65 256 272 267 271 259 180 172 166 196 222 213 217 219 219 220 216 222 218
28 17 2 346 351 5 16 44 81 95 89 92 103 103 104 103 92 82 84 94 90 74 75 62 58 91 83 50 208 19 352 2 7 3 357 348 357 360 330 333 309 328 323 305 315 328 346 18 65 68 343 7 38 41 20 350 9 24 356 324 346 27 278 305 324 46 1 296 21 79 249 279 267 266 255 175 183 183 208 226 214 219 218 216 223 219 225 226
21 16 9 4 12 20 29 71 101 107 100 103 113 115 113 100 81 75 82 99 74 56 61 51 58 102 93 12 316 334 338 353 354 357 359 350 354 350 337 336 313 334 336 318 313 316 8 62 67 52 18 14 45 66 31 13 355 7 57 279 302 332 311 316 332 39 52 306 340 60 242 283 270 261 251 172 195 202 221 236 224 223 221 218 221 220 226 230
8 10 14 15 15 30 57 98 112 114 108 111 118 121 118 93 78 91 95 111 92 60 60 51 72 109 74 351 340 334 324 329 332 348 359 2 351 337 335 340 338 333 335 352 360 344 27 58 31 29 51 31 46 76 40 7 317 329 22 359 281 290 311 314 314 340 23 19 308 339 243 268 272 275 271 198 205 216 228 239 234 227 223 220 220 221 223 225
25 6 9 7 5 41 84 116 119 118 117 116 116 112 106 90 81 91 96 127 130 47 56 35 47 101 359 348 347 307 313 320 326 346 359 8 342 338 339 335 335 336 349 26 21 13 22 24 41 52 29 17 28 66 66 256 221 246 302 331 309 300 285 288 283 305 8 9 289 306 276 270 279 285 278 226 207 222 234 237 237 235 227 221 220 221 222 223
42 16 2 356 355 40 109 132 129 128 129 123 120 112 100 87 74 69 62 72 85 45 69 343 27 129 273 316 317 314 316 323 342 353 1 4 340 347 14 11 1 14 34 40 356 14 35 21 48 51 4 355 11 109 146 191 170 186 217 211 276 292 284 266 260 279 358 341 282 265 265 275 287 290 289 267 212 222 243 244 242 241 232 225 221 223 224 222
40 27 1 341 323 38 138 147 143 139 138 134 133 108 79 68 47 34 35 49 82 122 120 252 78 113 309 314 330 337 338 351 17 1 3 359 338 357 26 13 27 43 45 2 314 3 72 60 57 167 216 238 244 189 166 174 161 169 171 190 258 273 282 273 268 296 9 353 275 258 280 281 283 285 288 285 231 231 248 248 248 244 233 228 223 225 225 224
26 25 1 315 254 167 154 158 151 143 138 134 136 90 121 145 66 241 10 43 63 86 90 145 111 58 335 313 343 356 17 18 355 1 6 1 352 15 359 14 46 29 353 304 299 352 64 74 137 222 212 220 244 189 142 121 129 129 193 253 296 257 265 276 274 312 16 20 288 307 309 288 284 284 288 287 248 244 243 238 246 240 233 234 227 230 230 231
7 1 351 240 204 174 161 160 151 142 126 99 89 95 152 169 139 162 144 95 359 36 63 52 46 15 335 13 360 5 53 20 340 348 2 5 19 39 355 40 69 13 335 6 16 13 42 75 241 237 215 197 30 71 80 54 63 60 115 326 304 271 283 300 321 340 4 6 299 326 320 291 289 289 288 283 251 251 242 228 240 237 233 235 230 233 234 238
351 342 343 218 192 174 164 160 155 149 120 71 69 99 137 141 142 152 107 100 318 359 41 42 52 356 336 25 11 16 59 41 328 324 352 4 22 54 71 59 63 23 354 27 108 93 52 251 238 229 122 61 26 36 60 44 38 49 47 353 278 291 340 300 315 336 325 282 266 303 305 288 296 306 297 282 251 268 271 244 244 237 233 237 235 236 233 234
345 333 337 201 184 177 171 168 169 171 152 58 75 100 131 135 140 146 86 87 62 310 358 75 122 95 313 347 0 24 82 65 231 314 348 14 37 35 80 98 71 44 359 42 106 111 161 249 227 75 54 74 37 4 51 53 353 316 227 200 239 278 263 251 297 325 321 305 254 315 320 294 305 328 303 301 324 309 312 303 277 254 245 255 260 250 235 232
357 345 12 164 174 180 178 179 193 201 204 145 111 125 137 141 153 169 96 72 9 302 315 294 146 48 295 339 347 32 108 32 220 284 339 22 42 18 61 111 84 68 268 107 82 85 208 251 160 65 37 65 83 342 88 109 347 318 245 203 192 196 226 296 332 342 351 344 347 28 8 297 302 310 281 300 342 319 315 315 285 271 261 256 257 251 240 238
11 17 80 141 160 165 166 177 199 191 197 203 160 155 152 152 172 164 100 63 1 294 326 298 209 351 329 345 345 93 84 351 273 281 346 20 21 90 73 351 51 110 208 196 70 107 188 7 64 97 56 56 61 314 228 131 65 323 259 185 153 139 153 3 7 13 4 291 304 67 106 265 305 309 288 320 334 312 309 304 286 281 270 245 243 248 243 240
18 30 84 139 155 160 164 175 178 173 193 210 176 166 161 160 178 166 75 44 351 276 9 290 254 24 338 333 9 111 92 315 300 332 17 15 339 78 88 346 37 84 185 106 34 270 176 20 27 66 68 59 47 285 227 138 100 276 233 129 127 204 267 214 88 108 229 277 316 27 141 215 296 288 305 358 326 313 313 307 303 293 268 251 247 249 245 242
21 33 92 144 158 162 164 166 171 173 197 192 175 170 164 166 209 62 80 69 327 270 74 299 285 43 335 354 40 94 156 321 41 335 355 35 358 34 78 148 157 181 53 99 99 276 138 205 248 149 82 71 224 223 193 139 120 254 202 153 235 264 235 172 145 208 259 349 328 320 122 128 279 268 331 4 320 308 304 295 299 300 284 270 261 260 256 254
25 42 100 149 171 173 150 155 173 185 219 184 165 164 167 177 235 50 76 109 296 35 90 324 334 323 340 10 19 26 3 5 98 301 343 46 27 38 81 181 144 150 39 101 167 240 174 229 206 153 146 224 235 229 180 150 205 256 175 157 353 31 102 128 137 177 39 26 277 267 175 114 276 277 306 342 301 272 280 282 283 290 293 281 270 272 271 267
29 67 128 144 179 186 172 169 183 196 200 161 155 157 163 164 58 60 55 226 271 313 249 29 330 329 18 34 347 350 25 348 320 332 355 34 9 29 79 194 101 111 349 41 141 240 313 302 192 144 185 201 204 229 184 176 230 332 37 18 21 39 45 58 88 90 58 327 255 244 228 114 295 282 265 273 262 225 259 296 297 296 303 297 285 278 271 265
30 49 142 174 187 185 175 174 192 198 165 146 149 150 135 54 61 86 115 254 111 307 346 28 338 10 40 53 333 344 15 332 330 12 15 1 359 13 37 11 49 63 360 360 346 297 336 346 236 257 228 154 101 324 270 347 347 45 49 31 14 360 17 20 359 42 79 266 262 247 233 134 241 271 253 253 277 251 245 279 288 293 300 302 300 288 271 266
28 36 63 151 186 190 181 178 187 174 153 147 143 113 85 47 24 119 273 322 345 297 339 18 323 31 42 43 348 327 335 333 360 48 41 28 30 9 29 140 130 39 356 321 332 328 312 244 260 306 270 150 97 352 329 360 35 53 51 52 28 349 2 355 316 329 205 241 261 251 284 242 232 258 266 271 283 280 260 253 263 281 293 301 307 305 298 291
29 34 44 57 118 167 144 152 169 158 152 151 127 53 77 79 288 218 268 328 350 299 39 79 350 47 60 26 347 313 301 298 4 48 90 87 65 7 313 230 187 66 346 270 348 352 327 296 301 323 285 186 128 135 300 329 31 22 39 97 80 36 11 306 279 292 275 262 271 285 310 296 274 270 254 252 268 276 279 277 265 269 280 289 297 307 320 322
29 37 46 57 74 99 107 121 151 152 153 149 82 56 74 101 230 197 256 257 249 353 38 78 6 31 62 67 297 313 37 291 335 28 4 25 51 356 302 304 301 82 88 90 22 40 17 307 271 196 253 166 148 177 178 149 136 254 177 133 136 143 160 259 240 247 279 285 291 304 300 202 234 273 231 221 266 291 310 312 301 285 279 286 301 314 326 326
21 31 43 54 66 83 101 120 144 151 156 105 63 70 114 215 235 181 222 238 224 356 342 35 62 55 6 325 301 337 83 274 324 20 18 39 146 191 226 265 279 92 101 80 302 164 143 265 259 262 267 157 173 214 141 103 25 261 141 99 151 177 160 216 214 203 265 320 296 263 243 211 221 287 304 338 348 354 4 3 6 354 335 338 336 333 335 326
15 20 33 41 54 83 105 126 144 157 156 82 66 78 189 216 215 173 197 188 145 165 165 11 67 78 330 315 332 358 23 273 321 5 331 243 199 188 198 227 202 121 128 127 247 165 65 279 278 352 322 174 168 228 115 66 257 152 98 188 228 180 125 112 276 313 50 333 278 229 255 283 313 310 316 10 22 8 7 5 2 350 348 357 350 340 342 332
12 24 31 27 37 88 118 131 149 165 90 83 90 202 211 213 173 166 181 114 140 134 110 133 270 103 248 293 306 314 343 305 325 6 283 267 229 184 183 225 189 177 186 157 198 193 140 282 289 63 240 273 222 198 348 3 140 130 181 230 233 107 83 92 298 340 23 260 273 264 247 285 323 293 309 9 12 354 352 354 354 358 5 2 348 337 334 323
30 38 35 21 28 110 123 128 153 138 69 75 94 233 206 191 168 148 148 130 136 101 98 165 204 156 184 198 272 269 284 296 320 7 251 262 252 168 149 182 181 204 215 129 113 194 124 280 297 324 194 292 1 62 326 331 85 134 204 224 130 130 301 29 146 290 316 287 288 283 264 269 248 245 311 355 345 337 341 349 5 8 3 349 336 333 331 329
62 32 22 14 28 108 124 140 140 65 70 91 195 230 188 198 248 182 153 131 115 117 137 205 181 90 179 173 215 242 224 230 237 28 206 227 263 181 152 174 173 195 277 93 128 212 115 151 284 289 230 305 9 86 238 291 30 51 324 313 53 169 195 186 169 184 202 274 292 303 308 288 234 217 272 329 322 341 349 356 8 358 345 336 334 334 333 334
59 58 352 356 29 122 140 140 63 54 74 155 194 192 183 214 253 270 198 168 157 159 197 202 162 144 203 200 218 224 176 201 189 175 232 230 266 244 192 166 151 161 322 46 106 204 88 140 249 293 324 331 288 212 191 184 155 99 341 275 270 219 181 242 250 148 141 200 238 296 296 276 237 220 254 328 342 34 22 6 358 339 337 340 336 335 333 329
74 71 311 352 44 149 126 74 41 61 103 159 183 167 209 172 154 314 298 190 185 226 198 171 164 173 189 197 221 200 169 200 192 198 240 231 228 244 219 157 157 158 127 61 85 216 150 163 223 287 314 254 246 230 184 176 167 155 178 204 195 164 134 279 282 276 121 186 191 218 278 274 254 218 235 4 53 96 43 12 351 337 342 345 337 334 332 328
77 80 301 1 53 159 72 63 355 59 111 172 198 158 150 122 116 12 302 66 144 235 102 125 166 174 170 179 196 186 172 210 205 200 227 223 205 214 251 137 151 139 120 148 235 224 157 122 233 268 256 244 262 291 152 165 154 146 177 192 157 136 136 158 237 270 296 223 183 126 277 278 270 175 131 105 119 95 45 9 358 353 348 347 340 335 337 336
97 162 302 28 21 35 70 69 311 15 57 248 281 319 119 107 106 115 223 226 188 172 16 270 198 192 194 187 167 173 192 203 193 194 221 238 218 224 322 117 152 125 103 162 238 243 150 101 310 277 282 295 322 360 31 90 112 134 216 168 151 158 156 167 188 193 251 259 243 84 279 278 271 182 160 116 75 55 38 16 15 6 347 345 342 338 341 340
138 191 199 32 6 43 88 161 213 259 272 291 17 322 293 140 149 154 200 236 201 159 156 210 213 208 188 149 129 182 209 215 209 215 215 218 227 325 18 33 162 149 134 192 190 199 224 178 94 320 321 330 343 357 350 343 48 192 241 237 193 164 122 128 166 111 302 261 209 167 262 271 244 224 279 14 19 9 8 13 13 359 341 340 337 335 339 342
100 199 301 357 25 66 130 182 155 156 207 107 67 238 217 227 193 169 179 220 202 174 173 238 226 120 117 110 80 219 230 222 232 268 302 228 255 351 22 4 6 177 223 215 157 147 218 199 148 187 277 290 296 302 308 306 280 232 253 253 224 180 158 181 288 128 243 262 187 170 246 268 279 291 316 360 15 1 352 353 350 343 335 328 327 335 345 354
108 36 301 331 13 57 92 150 109 124 166 149 199 252 171 181 279 193 169 200 196 167 161 247 168 94 88 136 171 262 253 224 221 306 285 241 264 316 352 357 35 149 205 145 108 90 95 233 209 198 208 224 245 252 248 26 301 285 282 269 249 219 191 165 112 198 234 275 276 252 253 270 284 299 329 353 360 351 341 341 337 334 335 333 334 346 355 354
129 173 166 270 346 31 15 350 92 110 178 175 171 219 178 186 296 343 181 222 202 155 174 197 166 168 180 173 186 239 240 197 204 248 236 231 245 294 323 30 65 2 326 129 126 97 93 281 245 213 224 238 252 266 288 348 286 276 280 280 269 233 176 171 211 227 226 324 271 263 269 283 288 307 348 349 341 338 335 336 335 333 335 333 336 349 352 346
148 187 152 121 239 203 183 258 148 117 136 187 164 184 178 179 216 208 202 289 330 206 185 212 225 208 193 171 162 193 208 190 236 238 237 241 224 337 355 36 75 335 353 39 352 110 133 260 248 205 243 257 260 272 276 269 265 265 270 275 276 259 193 200 234 238 214 230 256 269 289 295 296 323 351 341 330 325 324 329 334 334 332 331 340 351 347 343
96 136 357 37 162 191 176 155 121 122 146 170 161 203 181 185 221 227 175 95 313 254 192 223 248 221 196 181 157 171 198 193 255 258 216 194 198 169 288 250 231 344 23 105 343 126 150 251 247 197 274 268 251 258 264 259 265 271 264 257 262 264 236 220 241 245 225 237 255 274 289 288 296 345 342 327 321 315 315 330 338 335 333 336 345 345 341 340
144 181 203 51 52 157 126 64 100 124 171 191 228 235 188 186 216 232 175 154 189 234 186 218 244 215 189 191 178 205 215 190 226 261 181 168 230 198 212 216 155 46 23 137 232 292 178 259 236 102 317 283 255 254 260 235 237 262 271 266 258 263 259 240 242 247 240 253 262 273 280 278 303 356 333 323 330 332 333 338 335 329 329 335 340 337 337 336
162 167 147 117 120 176 98 71 105 125 190 227 219 228 210 206 207 201 215 198 177 170 182 204 223 158 146 186 204 232 234 198 206 231 177 181 230 209 215 204 143 136 171 174 185 166 169 263 358 58 348 291 313 23 321 278 257 264 280 286 271 246 252 245 214 214 226 259 280 291 287 287 317 334 328 330 338 337 334 332 326 323 329 339 335 333 334 335
138 86 104 105 165 234 141 112 101 128 211 223 204 208 225 236 214 180 219 249 179 175 191 190 177 125 128 196 218 234 238 206 217 230 186 181 226 146 162 149 132 140 165 168 162 153 153 167 37 66 316 277 302 338 319 316 314 291 281 284 264 238 256 321 303 259 248 250 278 292 279 296 319 329 332 335 335 332 330 326 320 319 328 334 328 332 338 338